Time,TemperatureF,DewpointF,PressureIn,WindDirection,WindDirectionDegrees,WindSpeedMPH,WindSpeedGustMPH,Humidity,HourlyPrecipIn,Conditions,Clouds,dailyrainin,SoftwareType,DateUTC
2013-02-01 00:02:00,76.0,-99.9,30.06,SE,124,7.0,11.0,-999,-99.99,,,-99.99,,2013-02-01 04:02:00,
2013-02-01 00:11:00,76.0,-99.9,30.06,SSE,158,9.0,10.0,-999,-99.99,,,-99.99,,2013-02-01 04:11:00,
2013-02-01 00:22:00,76.0,-99.9,30.06,SE,130,8.0,9.0,-999,-99.99,,,-99.99,,2013-02-01 04:22:00,
2013-02-01 00:32:00,77.0,-99.9,30.06,SE,138,7.0,9.0,-999,-99.99,,,-99.99,,2013-02-01 04:32:00,
2013-02-01 00:42:00,76.0,-99.9,30.06,SE,126,5.0,7.0,-999,-99.99,,,-99.99,,2013-02-01 04:42:00,
2013-02-01 00:52:00,76.0,-99.9,30.06,SE,132,10.0,12.0,-999,-99.99,,,-99.99,,2013-02-01 04:52:00,
2013-02-01 01:04:00,76.0,-99.9,30.06,SE,127,9.0,12.0,-999,-99.99,,,-99.99,,2013-02-01 05:04:00,
2013-02-01 01:12:00,76.0,-99.9,30.06,ESE,110,7.0,10.0,-999,-99.99,,,-99.99,,2013-02-01 05:12:00,
2013-02-01 01:22:00,76.0,-99.9,30.06,SE,133,9.0,10.0,-999,-99.99,,,-99.99,,2013-02-01 05:22:00,
2013-02-01 01:32:00,76.0,-99.9,30.05,SE,127,8.0,10.0,-999,-99.99,,,-99.99,,2013-02-01 05:32:00,
2013-02-01 01:42:00,76.0,-99.9,30.05,ESE,114,8.0,10.0,-999,-99.99,,,-99.99,,2013-02-01 05:42:00,
2013-02-01 01:52:00,76.0,-99.9,30.05,ESE,119,9.0,12.0,-999,-99.99,,,-99.99,,2013-02-01 05:52:00,
2013-02-01 02:02:00,75.0,-99.9,30.05,East,101,9.0,13.0,-999,-99.99,,,-99.99,,2013-02-01 06:02:00,
2013-02-01 02:12:00,76.0,-99.9,30.05,ESE,109,7.0,8.0,-999,-99.99,,,-99.99,,2013-02-01 06:12:00,
2013-02-01 02:22:00,76.0,-99.9,30.04,SE,135,5.0,9.0,-999,-99.99,,,-99.99,,2013-02-01 06:22:00,
2013-02-01 02:32:00,76.0,-99.9,30.04,SSE,151,4.0,6.0,-999,-99.99,,,-99.99,,2013-02-01 06:32:00,
2013-02-01 02:42:00,76.0,-99.9,30.04,SE,143,4.0,5.0,-999,-99.99,,,-99.99,,2013-02-01 06:42:00,
2013-02-01 02:52:00,75.0,-99.9,30.04,ESE,112,5.0,7.0,-999,-99.99,,,-99.99,,2013-02-01 06:52:00,
2013-02-01 03:02:00,75.0,-99.9,30.04,ESE,102,5.0,7.0,-999,-99.99,,,-99.99,,2013-02-01 07:02:00,
2013-02-01 03:12:00,75.0,-99.9,30.03,ESE,115,7.0,9.0,-999,-99.99,,,-99.99,,2013-02-01 07:12:00,
2013-02-01 03:22:00,75.0,-99.9,30.03,ESE,114,7.0,9.0,-999,-99.99,,,-99.99,,2013-02-01 07:22:00,
2013-02-01 03:32:00,75.0,-99.9,30.03,ESE,110,7.0,8.0,-999,-99.99,,,-99.99,,2013-02-01 07:32:00,
2013-02-01 03:42:00,75.0,-99.9,30.02,ESE,115,7.0,9.0,-999,-99.99,,,-99.99,,2013-02-01 07:42:00,
2013-02-01 03:52:00,75.0,-99.9,30.02,ESE,117,6.0,8.0,-999,-99.99,,,-99.99,,2013-02-01 07:52:00,
2013-02-01 04:01:00,75.0,-99.9,30.02,ESE,112,5.0,7.0,-999,-99.99,,,-99.99,,2013-02-01 08:01:00,
2013-02-01 04:11:00,75.0,-99.9,30.02,ESE,109,6.0,8.0,-999,-99.99,,,-99.99,,2013-02-01 08:11:00,
2013-02-01 04:22:00,75.0,-99.9,30.02,ESE,118,7.0,9.0,-999,-99.99,,,-99.99,,2013-02-01 08:22:00,
2013-02-01 04:32:00,75.0,-99.9,30.02,ESE,116,7.0,7.0,-999,-99.99,,,-99.99,,2013-02-01 08:32:00,
2013-02-01 04:42:00,75.0,-99.9,30.02,ESE,121,7.0,11.0,-999,-99.99,,,-99.99,,2013-02-01 08:42:00,
2013-02-01 04:52:00,75.0,-99.9,30.01,SE,127,6.0,8.0,-999,-99.99,,,-99.99,,2013-02-01 08:52:00,
2013-02-01 05:02:00,75.0,-99.9,30.02,ESE,122,6.0,8.0,-999,-99.99,,,-99.99,,2013-02-01 09:02:00,
2013-02-01 05:11:00,75.0,-99.9,30.02,ESE,107,7.0,9.0,-999,-99.99,,,-99.99,,2013-02-01 09:11:00,
2013-02-01 05:22:00,75.0,-99.9,30.02,ESE,121,7.0,10.0,-999,-99.99,,,-99.99,,2013-02-01 09:22:00,
2013-02-01 05:32:00,74.0,-99.9,30.03,East,101,12.0,15.0,-999,-99.99,,,-99.99,,2013-02-01 09:32:00,
2013-02-01 05:42:00,74.0,-99.9,30.03,ENE,61,9.0,11.0,-999,-99.99,,,-99.99,,2013-02-01 09:42:00,
2013-02-01 05:52:00,74.0,-99.9,30.03,East,81,11.0,13.0,-999,-99.99,,,-99.99,,2013-02-01 09:52:00,
2013-02-01 06:01:00,73.0,-99.9,30.03,East,84,11.0,14.0,-999,-99.99,,,-99.99,,2013-02-01 10:01:00,
2013-02-01 06:11:00,74.0,-99.9,30.03,ESE,107,8.0,13.0,-999,-99.99,,,-99.99,,2013-02-01 10:11:00,
2013-02-01 06:21:00,73.0,-99.9,30.04,East,97,9.0,10.0,-999,-99.99,,,-99.99,,2013-02-01 10:21:00,
2013-02-01 06:32:00,73.0,-99.9,30.04,East,83,6.0,12.0,-999,-99.99,,,-99.99,,2013-02-01 10:32:00,
2013-02-01 06:43:00,74.0,-99.9,30.04,ENE,62,5.0,9.0,-999,-99.99,,,-99.99,,2013-02-01 10:43:00,
2013-02-01 06:53:00,74.0,-99.9,30.04,ESE,106,10.0,12.0,-999,-99.99,,,-99.99,,2013-02-01 10:53:00,
2013-02-01 07:02:00,74.0,-99.9,30.04,ESE,120,9.0,14.0,-999,-99.99,,,-99.99,,2013-02-01 11:02:00,
2013-02-01 07:11:00,74.0,-99.9,30.04,ESE,116,11.0,13.0,-999,-99.99,,,-99.99,,2013-02-01 11:11:00,
2013-02-01 07:22:00,74.0,-99.9,30.05,ESE,115,11.0,15.0,-999,-99.99,,,-99.99,,2013-02-01 11:22:00,
2013-02-01 07:32:00,74.0,-99.9,30.05,ESE,105,10.0,14.0,-999,-99.99,,,-99.99,,2013-02-01 11:32:00,
2013-02-01 07:42:00,74.0,-99.9,30.05,ESE,114,8.0,11.0,-999,-99.99,,,-99.99,,2013-02-01 11:42:00,
2013-02-01 07:53:00,74.0,-99.9,30.06,SE,125,9.0,11.0,-999,-99.99,,,-99.99,,2013-02-01 11:53:00,
2013-02-01 08:03:00,74.0,-99.9,30.06,SE,125,10.0,11.0,-999,-99.99,,,-99.99,,2013-02-01 12:03:00,
2013-02-01 08:12:00,74.0,-99.9,30.06,ESE,122,7.0,10.0,-999,-99.99,,,-99.99,,2013-02-01 12:12:00,
2013-02-01 08:23:00,74.0,-99.9,30.06,SE,140,5.0,9.0,-999,-99.99,,,-99.99,,2013-02-01 12:23:00,
2013-02-01 08:32:00,74.0,-99.9,30.06,ESE,109,5.0,8.0,-999,-99.99,,,-99.99,,2013-02-01 12:32:00,
2013-02-01 08:42:00,74.0,-99.9,30.07,ESE,123,5.0,7.0,-999,-99.99,,,-99.99,,2013-02-01 12:42:00,
2013-02-01 08:52:00,74.0,-99.9,30.08,ESE,116,9.0,12.0,-999,-99.99,,,-99.99,,2013-02-01 12:52:00,
2013-02-01 09:02:00,74.0,-99.9,30.08,East,98,11.0,14.0,-999,-99.99,,,-99.99,,2013-02-01 13:02:00,
2013-02-01 09:12:00,73.0,-99.9,30.09,ESE,105,17.0,21.0,-999,-99.99,,,-99.99,,2013-02-01 13:12:00,
2013-02-01 09:22:00,73.0,-99.9,30.09,ESE,123,11.0,14.0,-999,-99.99,,,-99.99,,2013-02-01 13:22:00,
2013-02-01 09:33:00,72.0,-99.9,30.09,SE,124,11.0,15.0,-999,-99.99,,,-99.99,,2013-02-01 13:33:00,
2013-02-01 09:43:00,72.0,-99.9,30.09,ESE,110,4.0,9.0,-999,-99.99,,,-99.99,,2013-02-01 13:43:00,
2013-02-01 09:53:00,73.0,-99.9,30.10,ESE,106,5.0,7.0,-999,-99.99,,,-99.99,,2013-02-01 13:53:00,
2013-02-01 10:03:00,73.0,-99.9,30.10,SE,134,4.0,6.0,-999,-99.99,,,-99.99,,2013-02-01 14:03:00,
2013-02-01 10:12:00,73.0,-99.9,30.09,SE,142,6.0,7.0,-999,-99.99,,,-99.99,,2013-02-01 14:12:00,
2013-02-01 10:22:00,74.0,-99.9,30.09,SE,140,9.0,11.0,-999,-99.99,,,-99.99,,2013-02-01 14:22:00,
2013-02-01 10:33:00,75.0,-99.9,30.09,ESE,123,9.0,12.0,-999,-99.99,,,-99.99,,2013-02-01 14:33:00,
2013-02-01 10:42:00,75.0,-99.9,30.09,SE,128,9.0,11.0,-999,-99.99,,,-99.99,,2013-02-01 14:42:00,
2013-02-01 10:53:00,76.0,-99.9,30.09,ESE,116,5.0,7.0,-999,-99.99,,,-99.99,,2013-02-01 14:53:00,
2013-02-01 11:03:00,76.0,-99.9,30.09,SE,140,9.0,10.0,-999,-99.99,,,-99.99,,2013-02-01 15:03:00,
2013-02-01 11:12:00,77.0,-99.9,30.09,SE,126,13.0,17.0,-999,-99.99,,,-99.99,,2013-02-01 15:12:00,
2013-02-01 11:22:00,78.0,-99.9,30.09,ESE,115,10.0,13.0,-999,-99.99,,,-99.99,,2013-02-01 15:22:00,
2013-02-01 11:33:00,78.0,-99.9,30.09,SE,128,9.0,13.0,-999,-99.99,,,-99.99,,2013-02-01 15:33:00,
2013-02-01 11:42:00,78.0,-99.9,30.09,ESE,112,10.0,16.0,-999,-99.99,,,-99.99,,2013-02-01 15:42:00,
2013-02-01 11:52:00,79.0,-99.9,30.09,ESE,108,9.0,15.0,-999,-99.99,,,-99.99,,2013-02-01 15:52:00,
2013-02-01 12:03:00,78.0,-99.9,30.08,East,94,12.0,17.0,-999,-99.99,,,-99.99,,2013-02-01 16:03:00,
2013-02-01 12:12:00,78.0,-99.9,30.08,East,86,13.0,19.0,-999,-99.99,,,-99.99,,2013-02-01 16:12:00,
2013-02-01 12:22:00,76.0,-99.9,30.08,ENE,74,22.0,30.0,-999,-99.99,,,-99.99,,2013-02-01 16:22:00,
2013-02-01 12:33:00,75.0,-99.9,30.08,East,89,22.0,26.0,-999,-99.99,,,-99.99,,2013-02-01 16:33:00,
2013-02-01 12:43:00,74.0,-99.9,30.07,East,90,13.0,17.0,-999,-99.99,,,-99.99,,2013-02-01 16:43:00,
2013-02-01 12:53:00,77.0,-99.9,30.07,East,96,12.0,13.0,-999,-99.99,,,-99.99,,2013-02-01 16:53:00,
2013-02-01 13:03:00,78.0,-99.9,30.06,ESE,102,12.0,22.0,-999,-99.99,,,-99.99,,2013-02-01 17:03:00,
2013-02-01 13:12:00,78.0,-99.9,30.06,ESE,119,15.0,22.0,-999,-99.99,,,-99.99,,2013-02-01 17:12:00,
2013-02-01 13:22:00,76.0,-99.9,30.06,SE,132,14.0,19.0,-999,-99.99,,,-99.99,,2013-02-01 17:22:00,
2013-02-01 13:32:00,76.0,-99.9,30.05,SE,138,14.0,16.0,-999,-99.99,,,-99.99,,2013-02-01 17:32:00,
2013-02-01 13:42:00,76.0,-99.9,30.05,SE,133,10.0,15.0,-999,-99.99,,,-99.99,,2013-02-01 17:42:00,
2013-02-01 13:53:00,76.0,-99.9,30.04,SE,128,9.0,12.0,-999,-99.99,,,-99.99,,2013-02-01 17:53:00,
2013-02-01 14:03:00,77.0,-99.9,30.04,SE,129,11.0,13.0,-999,-99.99,,,-99.99,,2013-02-01 18:03:00,
2013-02-01 14:12:00,78.0,-99.9,30.04,East,96,11.0,17.0,-999,-99.99,,,-99.99,,2013-02-01 18:12:00,
2013-02-01 14:23:00,78.0,-99.9,30.04,East,88,15.0,17.0,-999,-99.99,,,-99.99,,2013-02-01 18:23:00,
2013-02-01 14:33:00,78.0,-99.9,30.03,ESE,107,12.0,16.0,-999,-99.99,,,-99.99,,2013-02-01 18:33:00,
2013-02-01 14:42:00,78.0,-99.9,30.03,East,98,12.0,14.0,-999,-99.99,,,-99.99,,2013-02-01 18:42:00,
2013-02-01 14:53:00,78.0,-99.9,30.02,East,97,11.0,14.0,-999,-99.99,,,-99.99,,2013-02-01 18:53:00,
2013-02-01 15:03:00,78.0,-99.9,30.02,East,87,14.0,16.0,-999,-99.99,,,-99.99,,2013-02-01 19:03:00,
2013-02-01 15:12:00,78.0,-99.9,30.02,East,90,13.0,15.0,-999,-99.99,,,-99.99,,2013-02-01 19:12:00,
2013-02-01 15:22:00,78.0,-99.9,30.01,East,100,11.0,19.0,-999,-99.99,,,-99.99,,2013-02-01 19:22:00,
2013-02-01 15:33:00,79.0,-99.9,30.01,East,85,13.0,16.0,-999,-99.99,,,-99.99,,2013-02-01 19:33:00,
2013-02-01 15:42:00,79.0,-99.9,30.01,East,85,13.0,16.0,-999,-99.99,,,-99.99,,2013-02-01 19:42:00,
2013-02-01 15:52:00,79.0,-99.9,30.01,East,86,14.0,18.0,-999,-99.99,,,-99.99,,2013-02-01 19:52:00,
2013-02-01 16:02:00,79.0,-99.9,30.01,East,92,15.0,17.0,-999,-99.99,,,-99.99,,2013-02-01 20:02:00,
2013-02-01 16:12:00,79.0,-99.9,30.00,East,84,13.0,16.0,-999,-99.99,,,-99.99,,2013-02-01 20:12:00,
2013-02-01 16:22:00,79.0,-99.9,30.00,East,98,15.0,19.0,-999,-99.99,,,-99.99,,2013-02-01 20:22:00,
2013-02-01 16:32:00,78.0,-99.9,30.00,East,94,14.0,18.0,-999,-99.99,,,-99.99,,2013-02-01 20:32:00,
2013-02-01 16:42:00,79.0,-99.9,30.00,East,88,14.0,18.0,-999,-99.99,,,-99.99,,2013-02-01 20:42:00,
2013-02-01 16:52:00,79.0,-99.9,30.00,East,86,14.0,17.0,-999,-99.99,,,-99.99,,2013-02-01 20:52:00,
2013-02-01 17:02:00,79.0,-99.9,30.00,East,86,15.0,19.0,-999,-99.99,,,-99.99,,2013-02-01 21:02:00,
2013-02-01 17:12:00,79.0,-99.9,30.00,East,89,13.0,18.0,-999,-99.99,,,-99.99,,2013-02-01 21:12:00,
2013-02-01 17:22:00,79.0,-99.9,30.01,East,85,15.0,18.0,-999,-99.99,,,-99.99,,2013-02-01 21:22:00,
2013-02-01 17:32:00,79.0,-99.9,30.01,East,90,13.0,16.0,-999,-99.99,,,-99.99,,2013-02-01 21:32:00,
2013-02-01 17:42:00,79.0,-99.9,30.01,East,95,13.0,17.0,-999,-99.99,,,-99.99,,2013-02-01 21:42:00,
2013-02-01 17:53:00,79.0,-99.9,30.01,East,91,12.0,14.0,-999,-99.99,,,-99.99,,2013-02-01 21:53:00,
2013-02-01 18:03:00,79.0,-99.9,30.02,East,88,13.0,16.0,-999,-99.99,,,-99.99,,2013-02-01 22:03:00,
2013-02-01 18:11:00,79.0,-99.9,30.02,East,82,12.0,13.0,-999,-99.99,,,-99.99,,2013-02-01 22:11:00,
2013-02-01 18:22:00,79.0,-99.9,30.02,East,89,12.0,14.0,-999,-99.99,,,-99.99,,2013-02-01 22:22:00,
2013-02-01 18:32:00,79.0,-99.9,30.02,ESE,103,13.0,15.0,-999,-99.99,,,-99.99,,2013-02-01 22:32:00,
2013-02-01 18:42:00,78.0,-99.9,30.02,East,89,12.0,15.0,-999,-99.99,,,-99.99,,2013-02-01 22:42:00,
2013-02-01 18:52:00,79.0,-99.9,30.02,East,85,12.0,15.0,-999,-99.99,,,-99.99,,2013-02-01 22:52:00,
2013-02-01 19:02:00,78.0,-99.9,30.03,East,84,12.0,14.0,-999,-99.99,,,-99.99,,2013-02-01 23:02:00,
2013-02-01 19:11:00,78.0,-99.9,30.03,East,91,11.0,14.0,-999,-99.99,,,-99.99,,2013-02-01 23:11:00,
2013-02-01 19:22:00,78.0,-99.9,30.03,East,82,13.0,14.0,-999,-99.99,,,-99.99,,2013-02-01 23:22:00,
2013-02-01 19:32:00,78.0,-99.9,30.03,East,87,11.0,14.0,-999,-99.99,,,-99.99,,2013-02-01 23:32:00,
2013-02-01 19:42:00,78.0,-99.9,30.04,ENE,77,11.0,13.0,-999,-99.99,,,-99.99,,2013-02-01 23:42:00,
2013-02-01 19:52:00,78.0,-99.9,30.04,East,80,11.0,13.0,-999,-99.99,,,-99.99,,2013-02-01 23:52:00,
2013-02-01 20:02:00,78.0,-99.9,30.04,East,83,10.0,12.0,-999,-99.99,,,-99.99,,2013-02-02 00:02:00,
2013-02-01 20:11:00,78.0,-99.9,30.04,East,81,9.0,13.0,-999,-99.99,,,-99.99,,2013-02-02 00:11:00,
2013-02-01 20:22:00,78.0,-99.9,30.05,East,79,10.0,12.0,-999,-99.99,,,-99.99,,2013-02-02 00:22:00,
2013-02-01 20:32:00,78.0,-99.9,30.05,East,88,10.0,13.0,-999,-99.99,,,-99.99,,2013-02-02 00:32:00,
2013-02-01 20:42:00,78.0,-99.9,30.06,East,82,11.0,14.0,-999,-99.99,,,-99.99,,2013-02-02 00:42:00,
2013-02-01 20:52:00,78.0,-99.9,30.06,East,89,13.0,17.0,-999,-99.99,,,-99.99,,2013-02-02 00:52:00,
2013-02-01 21:03:00,78.0,-99.9,30.06,East,81,11.0,17.0,-999,-99.99,,,-99.99,,2013-02-02 01:03:00,
2013-02-01 21:11:00,78.0,-99.9,30.06,East,79,14.0,16.0,-999,-99.99,,,-99.99,,2013-02-02 01:11:00,
2013-02-01 21:22:00,78.0,-99.9,30.06,East,87,12.0,15.0,-999,-99.99,,,-99.99,,2013-02-02 01:22:00,
2013-02-01 21:32:00,78.0,-99.9,30.06,East,83,12.0,15.0,-999,-99.99,,,-99.99,,2013-02-02 01:32:00,
2013-02-01 21:42:00,78.0,-99.9,30.06,East,87,13.0,16.0,-999,-99.99,,,-99.99,,2013-02-02 01:42:00,
2013-02-01 21:52:00,78.0,-99.9,30.06,East,79,14.0,17.0,-999,-99.99,,,-99.99,,2013-02-02 01:52:00,
2013-02-01 22:01:00,77.0,-99.9,30.07,ENE,78,16.0,19.0,-999,-99.99,,,-99.99,,2013-02-02 02:01:00,
2013-02-01 22:11:00,78.0,-99.9,30.07,East,97,9.0,16.0,-999,-99.99,,,-99.99,,2013-02-02 02:11:00,
2013-02-01 22:22:00,78.0,-99.9,30.06,East,86,11.0,13.0,-999,-99.99,,,-99.99,,2013-02-02 02:22:00,
2013-02-01 22:32:00,78.0,-99.9,30.06,East,83,10.0,14.0,-999,-99.99,,,-99.99,,2013-02-02 02:32:00,
2013-02-01 22:42:00,78.0,-99.9,30.06,East,79,10.0,14.0,-999,-99.99,,,-99.99,,2013-02-02 02:42:00,
2013-02-01 22:52:00,78.0,-99.9,30.06,East,85,11.0,13.0,-999,-99.99,,,-99.99,,2013-02-02 02:52:00,
2013-02-01 23:02:00,78.0,-99.9,30.06,East,95,12.0,14.0,-999,-99.99,,,-99.99,,2013-02-02 03:02:00,
2013-02-01 23:11:00,78.0,-99.9,30.06,East,84,11.0,14.0,-999,-99.99,,,-99.99,,2013-02-02 03:11:00,
2013-02-01 23:22:00,78.0,-99.9,30.06,East,82,10.0,13.0,-999,-99.99,,,-99.99,,2013-02-02 03:22:00,
2013-02-01 23:32:00,78.0,-99.9,30.06,East,84,10.0,15.0,-999,-99.99,,,-99.99,,2013-02-02 03:32:00,
2013-02-01 23:42:00,78.0,-99.9,30.06,ENE,78,12.0,15.0,-999,-99.99,,,-99.99,,2013-02-02 03:42:00,
2013-02-01 23:52:00,78.0,-99.9,30.06,ENE,71,10.0,12.0,-999,-99.99,,,-99.99,,2013-02-02 03:52:00,